Regional Weather Roundup
Issued by NWS Sioux Falls, SD

Home | Current Version | Previous Version | Text Only | Print | Product List | Glossary On
Versions: 1 2 3 4 5 6 7 8 9 10 11 12 13 14 15 16 17 18 19 20 21 22 23 24 25 26 27 28 29 30 31 32 33 34 35 36 37 38 39 40 41 42 43 44 45 46 47 48 49 50
000
ASUS43 KFSD 261802
RWRFSD

WEATHER ROUNDUP FOR SE SOUTH DAKOTA/SW MINNESOTA/NW IOWA
NATIONAL WEATHER SERVICE SIOUX FALLS SD
1200 PM CST FRI DEC 26 2014

NOTE: "FAIR" INDICATES FEW OR NO CLOUDS BELOW 12,000 FEET WITH NO
SIGNIFICANT WEATHER AND OR OBSTRUCTIONS TO VISIBILITY.


SDZ038>040-050-052>070-261900-
SOUTHEAST SOUTH DAKOTA

CITY           SKY/WX    TMP DP  RH WIND       PRES   REMARKS
CHAMBERLAIN    NOT AVBL
HURON          CLOUDY    24  17  74 N18       30.13F WCI  10
6HR MIN TEMP:  23; 6HR MAX TEMP:  25; 6HR PCP: TRACE;

MADISON        CLOUDY    23  23 100 N16       30.06F WCI  10
MITCHELL       PTSUNNY   25  20  81 N18       30.13F WCI  11
6HR MIN TEMP:  23; 6HR MAX TEMP:  27; 6HR PCP: TRACE;

SIOUX FALLS    CLOUDY    29  23  78 N15       30.06S WCI  18
6HR MIN TEMP:  26; 6HR MAX TEMP:  30; 6HR PCP: TRACE;

WINNER         CLOUDY    24  19  81 N16       30.12F WCI  11
YANKTON        CLOUDY    28  21  74 N17       30.08F WCI  16
$$

MNZ071-072-080-081-089-090-097-098-261900-
SOUTHWEST MINNESOTA

CITY           SKY/WX    TMP DP  RH WIND       PRES   REMARKS
FAIRMONT       CLOUDY    30  27  86 N17       29.98F WCI  18
JACKSON        CLOUDY    30  28  93 VRB14G22  30.00F WCI  20
LUVERNE        CLOUDY    30  27  86 N9G18     30.05R WCI  22
MARSHALL       CLOUDY    27  21  80 N15       30.07F WCI  15
6HR MIN TEMP:  27; 6HR MAX TEMP:  27;

MONTEVIDEO     CLOUDY    28  25  86 N13       30.10S WCI  18
PIPESTONE      CLOUDY    25  23  93 NE14G20   30.04F WCI  13
REDWOOD FALLS  CLOUDY    30  25  81 N10       30.06S WCI  21
TRACY          CLOUDY    28  27  94 N15       30.05F WCI  17
WINDOM         CLOUDY    28  28 100 N17       30.01F WCI  16
WORTHINGTON    CLOUDY    27 -20  12 N12       30.02S WCI  16
$$

IAZ001>003-012>014-020>022-031-032-NEZ013-014-SDZ071-261900-
NORTHWEST IOWA

CITY           SKY/WX    TMP DP  RH WIND       PRES   REMARKS
DENISON        CLOUDY    32  32 100 N10       29.97S WCI  24
ESTHERVILLE    CLOUDY    30  28  92 N16       29.99F WCI  19
SIOUX CITY     CLOUDY    32  27  81 N14       30.02F WCI  22
6HR MIN TEMP:  31; 6HR MAX TEMP:  33;

SPENCER        CLOUDY    31  27  85 N15       30.01R WCI  20
6HR MIN TEMP:  30; 6HR MAX TEMP:  31;

$$

ABBREVIATIONS USED IN REMARKS
   TC - TEMPERATURE IN CELSIUS
  WCI - WIND CHILL INDEX
   HX - HEAT INDEX
  VSB - VISIBILITY



USA.gov is the U.S. government's official web portal to all federal, state and local government web resources and services.